Flag for Czech Republic Weather past 2 weeks in Plzen, Czech Republic

Now
56 °F

Cool.


Feels Like: 55 °F
Forecast: 51 / 70 °F
Wind: 5 mph from Southeast

Location: Kocelovice

Current Time: Sep 17, 2014 at 6:13:56 AM

Latest Report: Sep 17, 2014 at 5:00 AM


Visibility: 9 mi

Pressure: 30.02 "Hg

Humidity: 96%

Dew point: 54 °F

Location of PlzenLocation

Historic Weather in Plzen — Graph

°F

Plzen temperature yesterday

Maximum temperature yesterday: 66 °F (at 5:00 PM)
Minimum temperature yesterday: 56 °F (at 11:00 PM)
Average temperature yesterday: 60 °F

Past Weeks' High & Low Weather Summary

 TemperatureHumidityPressure
High76 °F (Sep 8, 4:00 PM)100% (Sep 3, 7:00 AM)30.17 "Hg (Sep 3, 7:00 AM)
Low51 °F (Sep 11, 7:00 AM)47% (Sep 6, 4:00 PM)29.81 "Hg (Sep 12, 9:00 AM)
Average60 °F88%30.02 "Hg
* Reported Sep 2 4:00 AM — Sep 17 4:00 AM, Plzen, Weather by CustomWeather, © 2014

Note: Actual official high and low records may vary slightly from our data, if they occured in-between our weather recording intervals... More about our weather records

Advertising

Plzen weather history for previous 24 hours

 ConditionsComfort  
Time TempWeatherWind HumidityBarometerVisibility
4:00 AM
Sep 17
56 °FPassing clouds.5 mph95%30.03 "Hg12 mi
3:00 AM56 °FCool.5 mph94%30.04 "Hg12 mi
2:00 AM56 °FCool.5 mph93%30.04 "Hg12 mi
1:00 AM57 °FCool.7 mph91%30.04 "Hg12 mi
12:00 AM56 °FCool.3 mph91%30.06 "Hg12 mi
11:00 PM
Sep 16
56 °FCool.3 mph88%30.06 "Hg12 mi
10:00 PM59 °FPassing clouds.7 mph81%30.05 "Hg22 mi
9:00 PM59 °FPassing clouds.5 mph83%30.05 "Hg22 mi
8:00 PM60 °FPassing clouds.3 mph80%30.03 "Hg25 mi
7:00 PM62 °FScattered clouds.6 mph75%30.02 "Hg25 mi
6:00 PM64 °FScattered clouds.3 mph75%30.01 "Hg25 mi
5:00 PM66 °FPartly sunny.7 mph66%30.01 "Hg22 mi
4:00 PM65 °FPartly sunny.7 mph69%30.02 "Hg17 mi
3:00 PM65 °FOvercast.7 mph71%30.03 "Hg16 mi
2:00 PM65 °FOvercast.7 mph70%30.04 "Hg14 mi
1:00 PM64 °FOvercast.6 mph80%30.06 "Hg11 mi
12:00 PM62 °FOvercast.5 mph90%30.06 "Hg10 mi
11:00 AM60 °FLow clouds.3 mph94%30.07 "Hg9 mi
10:00 AM58 °FLow clouds.6 mph94%30.08 "Hg7 mi
9:00 AM58 °FFog.5 mph98%30.07 "Hg4 mi
8:00 AM57 °FFog.2 mph98%30.07 "Hg2 mi
7:00 AM57 °FFog.5 mph98%30.06 "Hg2 mi
6:00 AM58 °FFog.6 mph98%30.05 "Hg2 mi
Weather by CustomWeather, © 2014

See weather overviewHow to use our weather pages